Location: Atbuku
(36.4936°N, 30.4362°E)
Time: 05:31:46
(UTC+00:00)

Cosmos 990 Rocket - Pass Details

Date: 11 December 2025
Orbit: 742 x 764 km, 74.0° (Epoch: 13 January)

Event Time Altitude Azimuth Distance (km) Brightness Sun altitude
Rises 15:24:25 0° 198° (SSW) 3,163 7.8 -8.3°
Reaches altitude 10° 15:26:45 10° 198° (SSW) 2,244 7.0 -8.8°
Maximum altitude 15:31:50 84° 287° (WNW) 752 4.0 -9.7°
Drops below altitude 10° 15:36:59 10° 16° (NNE) 2,268 6.1 -10.7°
Sets 15:39:21 0° 18° (NNE) 3,199 6.8 -11.1°
Enters shadow 15:39:23 - 18° (NNE) 3,207 6.9 -11.1°
